Time,TemperatureF,DewpointF,PressureIn,WindDirection,WindDirectionDegrees,WindSpeedMPH,WindSpeedGustMPH,Humidity,HourlyPrecipIn,Conditions,Clouds,dailyrainin,SolarRadiationWatts/m^2,SoftwareType,DateUTC
2013-06-17 00:02:00,72.0,68.0,-100.00,South,177,0.0,6.0,86,0.00,,,0.00,0.000000,,2013-06-17 04:02:00,
2013-06-17 00:34:00,70.0,68.0,-100.00,SSE,156,0.0,5.0,92,0.00,,,0.00,0.000000,,2013-06-17 04:34:00,
2013-06-17 00:43:00,70.0,68.0,-100.00,SSE,156,0.0,5.0,92,0.00,,,0.00,0.000000,,2013-06-17 04:43:00,
2013-06-17 00:53:00,70.0,68.0,-100.00,SSE,156,0.0,5.0,92,0.00,,,0.00,0.000000,,2013-06-17 04:53:00,
2013-06-17 01:02:00,70.0,68.0,-100.00,SSE,156,0.0,5.0,92,0.00,,,0.00,0.000000,,2013-06-17 05:02:00,
2013-06-17 01:33:00,70.0,68.0,-100.00,SE,141,3.0,8.0,93,0.00,,,0.00,0.000000,,2013-06-17 05:33:00,
2013-06-17 01:44:00,70.0,68.0,-100.00,SE,141,3.0,8.0,93,0.00,,,0.00,0.000000,,2013-06-17 05:44:00,
2013-06-17 01:53:00,70.0,68.0,-100.00,SE,141,3.0,8.0,93,0.00,,,0.00,0.000000,,2013-06-17 05:53:00,
2013-06-17 02:02:00,70.0,68.0,-100.00,SE,141,3.0,8.0,93,0.00,,,0.00,0.000000,,2013-06-17 06:02:00,
2013-06-17 02:33:00,70.0,68.0,-100.00,SSW,197,0.0,7.0,92,0.00,,,0.00,0.000000,,2013-06-17 06:33:00,
2013-06-17 02:43:00,70.0,68.0,-100.00,SSW,197,0.0,7.0,92,0.00,,,0.00,0.000000,,2013-06-17 06:43:00,
2013-06-17 02:53:00,70.0,68.0,-100.00,SSW,197,0.0,7.0,92,0.00,,,0.00,0.000000,,2013-06-17 06:53:00,
2013-06-17 03:02:00,70.0,68.0,-100.00,SSW,197,0.0,7.0,92,0.00,,,0.00,0.000000,,2013-06-17 07:02:00,
2013-06-17 03:33:00,70.0,68.0,-100.00,SSW,193,1.0,5.0,92,0.00,,,0.00,0.000000,,2013-06-17 07:33:00,
2013-06-17 03:43:00,70.0,68.0,-100.00,SSW,193,1.0,5.0,92,0.00,,,0.00,0.000000,,2013-06-17 07:43:00,
2013-06-17 03:53:00,70.0,68.0,-100.00,SSW,193,1.0,5.0,92,0.00,,,0.00,0.000000,,2013-06-17 07:53:00,
2013-06-17 04:02:00,70.0,68.0,-100.00,SSW,193,1.0,5.0,92,0.00,,,0.00,0.000000,,2013-06-17 08:02:00,
2013-06-17 04:34:00,70.0,67.0,-100.00,SSW,203,3.0,6.0,91,0.00,,,0.00,0.000000,,2013-06-17 08:34:00,
2013-06-17 04:43:00,70.0,67.0,-100.00,SSW,203,3.0,6.0,91,0.00,,,0.00,0.000000,,2013-06-17 08:43:00,
2013-06-17 04:53:00,70.0,67.0,-100.00,SSW,203,3.0,6.0,91,0.00,,,0.00,0.000000,,2013-06-17 08:53:00,
2013-06-17 05:02:00,70.0,67.0,-100.00,SSW,203,3.0,6.0,91,0.00,,,0.00,0.000000,,2013-06-17 09:02:00,
2013-06-17 05:34:00,70.0,68.0,-100.00,SSE,165,0.0,7.0,93,0.00,,,0.00,0.000000,,2013-06-17 09:34:00,
2013-06-17 05:44:00,70.0,68.0,-100.00,SSE,165,0.0,7.0,93,0.00,,,0.00,0.000000,,2013-06-17 09:44:00,
2013-06-17 05:53:00,70.0,68.0,-100.00,SSE,165,0.0,7.0,93,0.00,,,0.00,0.000000,,2013-06-17 09:53:00,
2013-06-17 06:02:00,70.0,68.0,-100.00,SSE,165,0.0,7.0,93,0.00,,,0.00,0.000000,,2013-06-17 10:02:00,
2013-06-17 06:33:00,69.0,67.0,-100.00,South,170,3.0,6.0,93,0.00,,,0.00,0.000000,,2013-06-17 10:33:00,
2013-06-17 06:43:00,69.0,67.0,-100.00,South,170,3.0,6.0,93,0.00,,,0.00,0.000000,,2013-06-17 10:43:00,
2013-06-17 06:54:00,69.0,67.0,-100.00,South,170,3.0,6.0,93,0.00,,,0.00,0.000000,,2013-06-17 10:54:00,
2013-06-17 07:02:00,69.0,67.0,-100.00,South,170,3.0,6.0,93,0.00,,,0.00,0.000000,,2013-06-17 11:02:00,
2013-06-17 07:33:00,70.0,68.0,-100.00,NNW,341,1.0,6.0,93,0.00,,,0.00,3.000000,,2013-06-17 11:33:00,
2013-06-17 07:43:00,70.0,68.0,-100.00,NNW,341,1.0,6.0,93,0.00,,,0.00,3.000000,,2013-06-17 11:43:00,
2013-06-17 07:53:00,70.0,68.0,-100.00,NNW,341,1.0,6.0,93,0.00,,,0.00,3.000000,,2013-06-17 11:53:00,
2013-06-17 08:02:00,70.0,68.0,-100.00,NNW,341,1.0,6.0,93,0.00,,,0.00,3.000000,,2013-06-17 12:02:00,
2013-06-17 08:33:00,70.0,68.0,-100.00,SW,226,0.0,2.0,94,0.00,,,0.00,29.000000,,2013-06-17 12:33:00,
2013-06-17 08:43:00,70.0,68.0,-100.00,SW,226,0.0,2.0,94,0.00,,,0.00,29.000000,,2013-06-17 12:43:00,
2013-06-17 08:53:00,70.0,68.0,-100.00,SW,226,0.0,2.0,94,0.00,,,0.00,29.000000,,2013-06-17 12:53:00,
2013-06-17 09:02:00,70.0,68.0,-100.00,SW,226,0.0,2.0,94,0.00,,,0.00,29.000000,,2013-06-17 13:02:00,
2013-06-17 09:33:00,72.0,68.0,-100.00,SSW,207,0.0,4.0,88,0.00,,,0.00,95.000000,,2013-06-17 13:33:00,
2013-06-17 09:43:00,72.0,68.0,-100.00,SSW,207,0.0,4.0,88,0.00,,,0.00,95.000000,,2013-06-17 13:43:00,
2013-06-17 09:53:00,72.0,68.0,-100.00,SSW,207,0.0,4.0,88,0.00,,,0.00,95.000000,,2013-06-17 13:53:00,
2013-06-17 10:02:00,72.0,68.0,-100.00,SSW,207,0.0,4.0,88,0.00,,,0.00,95.000000,,2013-06-17 14:02:00,
2013-06-17 10:34:00,73.0,68.0,-100.00,SSW,197,5.0,12.0,85,0.00,,,0.00,145.000000,,2013-06-17 14:34:00,
2013-06-17 10:44:00,73.0,68.0,-100.00,SSW,197,5.0,12.0,85,0.00,,,0.00,145.000000,,2013-06-17 14:44:00,
2013-06-17 10:54:00,73.0,68.0,-100.00,SSW,197,5.0,12.0,85,0.00,,,0.00,145.000000,,2013-06-17 14:54:00,
2013-06-17 11:02:00,73.0,68.0,-100.00,SSW,197,5.0,12.0,85,0.00,,,0.00,145.000000,,2013-06-17 15:02:00,
2013-06-17 11:43:00,71.0,69.0,-100.00,East,91,0.0,5.0,93,0.05,,,0.05,89.000000,,2013-06-17 15:43:00,
2013-06-17 11:53:00,71.0,69.0,-100.00,East,91,0.0,5.0,93,0.05,,,0.05,89.000000,,2013-06-17 15:53:00,
2013-06-17 12:02:00,71.0,69.0,-100.00,East,91,0.0,5.0,93,0.05,,,0.05,89.000000,,2013-06-17 16:02:00,
2013-06-17 12:33:00,77.0,70.0,-100.00,South,184,3.0,8.0,79,0.01,,,0.06,488.000000,,2013-06-17 16:33:00,
2013-06-17 12:43:00,77.0,70.0,-100.00,South,184,3.0,8.0,79,0.01,,,0.06,488.000000,,2013-06-17 16:43:00,
2013-06-17 12:54:00,77.0,70.0,-100.00,South,184,3.0,8.0,79,0.01,,,0.06,488.000000,,2013-06-17 16:54:00,
2013-06-17 13:02:00,77.0,70.0,-100.00,South,184,3.0,8.0,79,0.01,,,0.06,488.000000,,2013-06-17 17:02:00,
2013-06-17 13:43:00,82.0,70.0,-100.00,SSW,192,0.0,7.0,68,0.00,,,0.06,656.000000,,2013-06-17 17:43:00,
2013-06-17 13:52:00,82.0,70.0,-100.00,SSW,192,0.0,7.0,68,0.00,,,0.06,656.000000,,2013-06-17 17:52:00,
2013-06-17 14:02:00,82.0,70.0,-100.00,SSW,192,0.0,7.0,68,0.00,,,0.06,656.000000,,2013-06-17 18:02:00,
2013-06-17 14:33:00,80.0,70.0,-100.00,South,178,4.0,10.0,71,0.00,,,0.06,478.000000,,2013-06-17 18:33:00,
2013-06-17 14:43:00,80.0,70.0,-100.00,South,178,4.0,10.0,71,0.00,,,0.06,478.000000,,2013-06-17 18:43:00,
2013-06-17 14:53:00,80.0,70.0,-100.00,South,178,4.0,10.0,71,0.00,,,0.06,478.000000,,2013-06-17 18:53:00,
2013-06-17 15:02:00,80.0,70.0,-100.00,South,178,4.0,10.0,71,0.00,,,0.06,478.000000,,2013-06-17 19:02:00,
2013-06-17 15:33:00,83.0,71.0,-100.00,SW,232,3.0,13.0,68,0.00,,,-99.99,611.000000,,2013-06-17 19:33:00,
2013-06-17 15:43:00,83.0,71.0,-100.00,SW,232,3.0,13.0,68,0.00,,,-99.99,611.000000,,2013-06-17 19:43:00,
2013-06-17 15:54:00,83.0,71.0,-100.00,SW,232,3.0,13.0,68,0.00,,,-99.99,611.000000,,2013-06-17 19:54:00,
2013-06-17 16:02:00,83.0,71.0,-100.00,SW,232,3.0,13.0,68,0.00,,,-99.99,611.000000,,2013-06-17 20:02:00,
2013-06-17 16:34:00,85.0,70.0,-100.00,SW,222,2.0,8.0,60,0.00,,,-99.99,831.000000,,2013-06-17 20:34:00,
2013-06-17 16:43:00,85.0,70.0,-100.00,SW,222,2.0,8.0,60,0.00,,,-99.99,831.000000,,2013-06-17 20:43:00,
2013-06-17 16:52:00,85.0,70.0,-100.00,SW,222,2.0,8.0,60,0.00,,,-99.99,831.000000,,2013-06-17 20:52:00,
2013-06-17 17:01:00,85.0,70.0,-100.00,SW,222,2.0,8.0,60,0.00,,,-99.99,831.000000,,2013-06-17 21:01:00,
2013-06-17 18:53:00,81.0,70.0,-100.00,SW,232,0.0,11.0,70,0.00,,,0.06,299.000000,,2013-06-17 22:53:00,
2013-06-17 19:02:00,81.0,70.0,-100.00,SW,232,0.0,11.0,70,0.00,,,0.06,299.000000,,2013-06-17 23:02:00,
2013-06-17 19:33:00,78.0,71.0,-100.00,SSW,206,1.0,8.0,78,0.00,,,0.06,66.000000,,2013-06-17 23:33:00,
2013-06-17 19:43:00,78.0,71.0,-100.00,SSW,206,1.0,8.0,78,0.00,,,0.06,66.000000,,2013-06-17 23:43:00,
2013-06-17 19:53:00,78.0,71.0,-100.00,SSW,206,1.0,8.0,78,0.00,,,0.06,66.000000,,2013-06-17 23:53:00,
2013-06-17 20:01:00,78.0,71.0,-100.00,SSW,206,1.0,8.0,78,0.00,,,0.06,66.000000,,2013-06-18 00:01:00,
2013-06-17 20:33:00,74.0,71.0,-100.00,SE,143,1.0,16.0,91,0.03,,,0.09,51.000000,,2013-06-18 00:33:00,
2013-06-17 20:43:00,74.0,71.0,-100.00,SE,143,1.0,16.0,91,0.03,,,0.09,51.000000,,2013-06-18 00:43:00,
2013-06-17 20:52:00,74.0,71.0,-100.00,SE,143,1.0,16.0,91,0.03,,,0.09,51.000000,,2013-06-18 00:52:00,
2013-06-17 21:01:00,74.0,71.0,-100.00,SE,143,1.0,16.0,91,0.03,,,0.09,51.000000,,2013-06-18 01:01:00,
2013-06-17 21:34:00,71.0,68.0,-100.00,SSW,198,4.0,8.0,89,0.00,,,0.09,16.000000,,2013-06-18 01:34:00,
2013-06-17 21:44:00,71.0,68.0,-100.00,SSW,198,4.0,8.0,89,0.00,,,0.09,16.000000,,2013-06-18 01:44:00,
2013-06-17 21:53:00,71.0,68.0,-100.00,SSW,198,4.0,8.0,89,0.00,,,0.09,16.000000,,2013-06-18 01:53:00,
2013-06-17 22:02:00,71.0,68.0,-100.00,SSW,198,4.0,8.0,89,0.00,,,0.09,16.000000,,2013-06-18 02:02:00,
2013-06-17 22:43:00,70.0,68.0,-100.00,South,172,3.0,6.0,93,0.00,,,0.09,0.000000,,2013-06-18 02:43:00,
2013-06-17 22:53:00,70.0,68.0,-100.00,South,172,3.0,6.0,93,0.00,,,0.09,0.000000,,2013-06-18 02:53:00,
2013-06-17 23:02:00,70.0,68.0,-100.00,South,172,3.0,6.0,93,0.00,,,0.09,0.000000,,2013-06-18 03:02:00,
2013-06-17 23:43:00,71.0,68.0,-100.00,SW,231,0.0,9.0,90,0.00,,,0.09,0.000000,,2013-06-18 03:43:00,
2013-06-17 23:53:00,71.0,68.0,-100.00,SW,231,0.0,9.0,90,0.00,,,0.09,0.000000,,2013-06-18 03:53:00,